GEFSMW_prec_meanprecacc_216.txt.gz
Total_Precipitation_Accumulation
1.00 1.13 1.20 1.48 1.74 1.91 2.10 2.24 2.32 2.37 2.58 2.72 2.70 2.62 2.47 2.24 2.13 2.09 1.95 1.81 1.73 1.77 1.77 1.63 1.53 1.52 1.44 1.29 1.18 1.08 1.06 1.03 0.99 1.01 0.90 0.77 0.71 0.65 0.57 0.51 0.49 0.47 0.44
0.87 1.00 1.06 1.20 1.42 1.65 1.89 2.15 2.26 2.34 2.32 2.36 2.56 2.69 2.77 2.58 2.30 2.12 2.02 1.91 1.82 1.81 1.79 1.75 1.68 1.61 1.57 1.50 1.44 1.37 1.28 1.23 1.23 1.23 1.22 1.05 0.87 0.69 0.59 0.59 0.58 0.54 0.53
0.71 0.82 0.92 1.13 1.26 1.41 1.66 1.98 2.16 2.30 2.30 2.30 2.54 2.75 2.88 2.71 2.39 2.04 1.88 1.89 1.90 1.91 1.83 1.81 1.82 1.75 1.65 1.55 1.50 1.45 1.40 1.34 1.32 1.33 1.42 1.27 0.99 0.73 0.60 0.54 0.54 0.55 0.56
0.60 0.66 0.79 0.95 1.08 1.25 1.44 1.62 1.84 2.03 2.22 2.29 2.33 2.36 2.43 2.41 2.17 2.05 1.96 1.97 1.97 1.97 1.92 1.87 1.87 1.83 1.74 1.59 1.54 1.48 1.39 1.36 1.33 1.31 1.26 1.19 1.01 0.93 0.79 0.60 0.55 0.57 0.57
0.62 0.62 0.75 0.91 0.98 1.11 1.36 1.50 1.58 1.78 2.02 2.16 2.21 2.31 2.25 2.25 2.29 2.24 2.16 2.07 2.02 1.98 1.91 1.86 1.85 1.77 1.69 1.66 1.67 1.60 1.54 1.45 1.38 1.31 1.27 1.26 1.11 0.96 0.94 0.78 0.61 0.60 0.60
0.69 0.74 0.83 0.91 0.95 1.03 1.22 1.44 1.45 1.54 1.70 1.94 2.15 2.20 2.10 2.09 2.12 2.09 2.04 2.03 2.03 2.00 1.91 1.81 1.76 1.72 1.69 1.67 1.69 1.73 1.68 1.62 1.54 1.44 1.35 1.35 1.29 1.13 1.08 1.02 0.80 0.71 0.65
0.65 0.74 0.82 0.83 0.87 0.95 1.08 1.26 1.35 1.43 1.51 1.67 1.86 2.03 2.08 2.05 2.04 2.03 1.98 1.90 1.82 1.74 1.73 1.75 1.69 1.64 1.59 1.60 1.63 1.68 1.68 1.64 1.60 1.51 1.44 1.40 1.34 1.23 1.21 1.18 1.02 0.89 0.77
0.52 0.57 0.68 0.76 0.84 0.90 0.94 1.00 1.06 1.13 1.21 1.28 1.42 1.59 1.80 1.88 1.82 1.83 1.81 1.77 1.69 1.66 1.66 1.66 1.66 1.66 1.63 1.59 1.60 1.61 1.61 1.61 1.55 1.45 1.39 1.33 1.26 1.26 1.28 1.26 1.28 1.24 1.02
0.52 0.53 0.61 0.66 0.73 0.81 0.88 0.87 0.89 0.94 1.03 1.05 1.13 1.22 1.41 1.56 1.59 1.63 1.59 1.50 1.48 1.54 1.55 1.54 1.54 1.57 1.58 1.56 1.57 1.56 1.53 1.54 1.51 1.46 1.38 1.26 1.14 1.13 1.16 1.18 1.26 1.40 1.32
0.50 0.49 0.55 0.59 0.63 0.70 0.77 0.78 0.80 0.83 0.95 0.99 1.02 1.05 1.13 1.23 1.37 1.47 1.38 1.32 1.32 1.34 1.37 1.36 1.36 1.38 1.41 1.41 1.44 1.42 1.39 1.37 1.33 1.33 1.35 1.30 1.19 1.15 1.17 1.23 1.28 1.37 1.43
0.50 0.52 0.56 0.59 0.63 0.69 0.70 0.68 0.76 0.81 0.90 0.94 0.91 0.90 0.95 1.01 1.07 1.15 1.18 1.14 1.17 1.16 1.15 1.15 1.17 1.16 1.19 1.23 1.26 1.23 1.22 1.26 1.25 1.23 1.27 1.29 1.26 1.27 1.25 1.30 1.36 1.42 1.50
0.47 0.50 0.51 0.55 0.61 0.65 0.62 0.59 0.66 0.73 0.84 0.87 0.81 0.80 0.85 0.90 0.93 0.95 0.99 0.99 1.01 1.03 1.04 1.05 1.05 1.01 0.99 1.03 1.07 1.09 1.09 1.12 1.13 1.15 1.21 1.24 1.27 1.32 1.33 1.37 1.40 1.42 1.43
0.34 0.36 0.38 0.41 0.44 0.46 0.48 0.54 0.57 0.56 0.61 0.65 0.62 0.62 0.64 0.70 0.78 0.81 0.80 0.82 0.87 0.90 0.92 0.94 0.95 0.95 0.92 0.94 0.97 0.96 0.97 0.99 1.01 1.02 1.05 1.07 1.12 1.21 1.24 1.29 1.33 1.32 1.32
0.26 0.28 0.30 0.30 0.33 0.35 0.39 0.45 0.44 0.44 0.51 0.53 0.51 0.51 0.52 0.54 0.60 0.65 0.64 0.64 0.68 0.73 0.77 0.82 0.84 0.84 0.85 0.89 0.94 0.97 0.96 0.94 0.93 0.93 0.95 0.98 1.02 1.06 1.12 1.20 1.23 1.25 1.25
0.21 0.24 0.25 0.26 0.29 0.31 0.33 0.35 0.39 0.46 0.52 0.55 0.54 0.51 0.48 0.49 0.52 0.57 0.58 0.56 0.57 0.57 0.58 0.64 0.72 0.77 0.78 0.81 0.85 0.88 0.92 0.93 0.93 0.94 0.98 1.03 1.14 1.15 1.11 1.08 1.07 1.10 1.17
0.17 0.17 0.19 0.21 0.23 0.28 0.32 0.36 0.43 0.53 0.58 0.60 0.57 0.55 0.51 0.48 0.45 0.45 0.46 0.46 0.48 0.49 0.52 0.56 0.59 0.66 0.72 0.90 0.89 0.82 0.82 0.90 0.95 0.97 0.96 1.00 1.11 1.09 1.07 1.01 0.97 0.99 1.07
0.14 0.15 0.15 0.18 0.21 0.29 0.38 0.45 0.50 0.59 0.62 0.64 0.60 0.54 0.50 0.47 0.44 0.41 0.41 0.43 0.45 0.48 0.52 0.55 0.58 0.63 0.77 0.96 0.92 0.94 0.85 0.87 0.93 0.95 0.94 0.89 0.86 0.89 0.80 0.85 0.90 0.90 0.91
0.11 0.11 0.12 0.14 0.15 0.21 0.31 0.40 0.49 0.61 0.64 0.65 0.64 0.62 0.61 0.61 0.63 0.62 0.62 0.62 0.60 0.62 0.67 0.71 0.74 0.77 0.87 0.96 0.89 0.86 0.78 0.80 0.82 0.80 0.78 0.74 0.69 0.68 0.69 0.72 0.77 0.68 0.64
0.08 0.08 0.09 0.10 0.10 0.13 0.21 0.31 0.44 0.60 0.74 0.80 0.80 0.81 0.84 0.89 0.93 0.95 0.94 0.93 0.92 0.91 0.88 0.84 0.79 0.76 0.77 0.80 0.76 0.72 0.66 0.67 0.65 0.61 0.60 0.60 0.57 0.66 0.75 0.70 0.65 0.58 0.56
0.11 0.10 0.10 0.12 0.14 0.16 0.23 0.37 0.54 0.70 0.81 0.86 0.90 0.94 1.00 1.06 1.04 1.02 0.99 0.92 0.87 0.86 0.83 0.81 0.76 0.68 0.62 0.59 0.56 0.55 0.50 0.49 0.45 0.43 0.43 0.50 0.51 0.62 0.71 0.63 0.61 0.58 0.48
0.21 0.22 0.23 0.25 0.26 0.29 0.38 0.53 0.64 0.74 0.78 0.79 0.81 0.85 0.85 0.87 0.84 0.81 0.77 0.73 0.67 0.62 0.59 0.55 0.50 0.45 0.42 0.42 0.41 0.43 0.40 0.40 0.41 0.40 0.38 0.40 0.52 0.58 0.62 0.63 0.56 0.55 0.57
0.25 0.33 0.38 0.40 0.40 0.42 0.49 0.57 0.59 0.59 0.58 0.56 0.55 0.54 0.51 0.49 0.49 0.50 0.49 0.47 0.45 0.41 0.39 0.36 0.35 0.31 0.30 0.31 0.34 0.39 0.43 0.45 0.42 0.40 0.37 0.41 0.55 0.61 0.62 0.58 0.57 0.63 0.67
0.12 0.16 0.22 0.26 0.27 0.27 0.31 0.34 0.30 0.26 0.24 0.22 0.22 0.23 0.21 0.22 0.24 0.26 0.27 0.28 0.29 0.29 0.29 0.29 0.29 0.28 0.27 0.29 0.35 0.39 0.46 0.52 0.48 0.43 0.47 0.51 0.56 0.59 0.57 0.56 0.59 0.60 0.57
0.07 0.08 0.08 0.09 0.10 0.10 0.12 0.13 0.11 0.09 0.09 0.09 0.10 0.12 0.15 0.17 0.19 0.22 0.23 0.24 0.24 0.24 0.26 0.27 0.27 0.27 0.26 0.27 0.30 0.36 0.42 0.51 0.52 0.50 0.51 0.55 0.56 0.55 0.53 0.54 0.54 0.52 0.52
0.08 0.09 0.08 0.08 0.09 0.09 0.09 0.09 0.09 0.09 0.09 0.09 0.11 0.12 0.14 0.17 0.18 0.20 0.22 0.25 0.25 0.26 0.30 0.31 0.30 0.32 0.31 0.28 0.39 0.46 0.48 0.52 0.56 0.61 0.58 0.54 0.51 0.49 0.48 0.47 0.47 0.48 0.51
0.11 0.11 0.11 0.12 0.13 0.14 0.15 0.15 0.15 0.14 0.14 0.15 0.15 0.17 0.19 0.19 0.20 0.21 0.22 0.24 0.27 0.29 0.31 0.32 0.33 0.31 0.33 0.37 0.45 0.50 0.54 0.59 0.67 0.72 0.63 0.51 0.45 0.44 0.44 0.46 0.48 0.49 0.51

GEFSMW_prec_meanprecacc_222.txt.gz
Total_Precipitation_Accumulation
1.01 1.13 1.20 1.48 1.74 1.91 2.10 2.25 2.33 2.38 2.59 2.73 2.71 2.63 2.48 2.25 2.15 2.11 1.99 1.85 1.75 1.79 1.78 1.64 1.55 1.56 1.47 1.34 1.25 1.15 1.13 1.10 1.04 1.05 0.93 0.81 0.76 0.70 0.61 0.56 0.54 0.51 0.48
0.87 1.00 1.06 1.20 1.42 1.65 1.90 2.15 2.27 2.34 2.34 2.38 2.57 2.71 2.78 2.61 2.32 2.15 2.06 1.95 1.85 1.82 1.80 1.76 1.70 1.63 1.60 1.55 1.49 1.43 1.34 1.28 1.27 1.26 1.25 1.08 0.91 0.74 0.64 0.62 0.60 0.57 0.57
0.71 0.82 0.92 1.13 1.26 1.41 1.67 1.99 2.16 2.30 2.31 2.32 2.56 2.76 2.90 2.75 2.42 2.07 1.90 1.91 1.92 1.92 1.83 1.82 1.84 1.78 1.69 1.59 1.55 1.49 1.45 1.39 1.36 1.36 1.45 1.29 1.01 0.76 0.64 0.57 0.56 0.57 0.58
0.60 0.66 0.79 0.96 1.08 1.26 1.44 1.63 1.84 2.03 2.23 2.31 2.36 2.38 2.47 2.46 2.20 2.09 1.99 1.99 1.98 1.98 1.93 1.89 1.89 1.86 1.78 1.63 1.58 1.51 1.44 1.41 1.37 1.35 1.29 1.21 1.03 0.95 0.81 0.64 0.58 0.58 0.58
0.62 0.63 0.75 0.91 0.98 1.11 1.36 1.51 1.58 1.79 2.02 2.17 2.22 2.33 2.29 2.29 2.34 2.29 2.19 2.10 2.04 1.99 1.93 1.89 1.88 1.80 1.73 1.70 1.71 1.64 1.58 1.50 1.42 1.36 1.31 1.30 1.14 0.99 0.96 0.80 0.63 0.63 0.61
0.69 0.74 0.83 0.91 0.96 1.03 1.22 1.44 1.45 1.54 1.71 1.95 2.17 2.21 2.13 2.15 2.18 2.16 2.09 2.07 2.05 2.02 1.94 1.84 1.79 1.75 1.74 1.72 1.75 1.79 1.72 1.66 1.59 1.49 1.39 1.39 1.34 1.17 1.12 1.05 0.83 0.74 0.67
0.65 0.74 0.83 0.83 0.88 0.96 1.08 1.26 1.36 1.44 1.52 1.68 1.88 2.05 2.11 2.10 2.11 2.11 2.05 1.95 1.85 1.77 1.75 1.77 1.72 1.66 1.62 1.64 1.68 1.74 1.73 1.68 1.65 1.56 1.48 1.44 1.38 1.27 1.25 1.22 1.07 0.93 0.80
0.52 0.57 0.68 0.77 0.86 0.92 0.97 1.02 1.08 1.15 1.23 1.30 1.44 1.62 1.83 1.90 1.85 1.86 1.84 1.79 1.70 1.68 1.68 1.67 1.68 1.68 1.65 1.62 1.64 1.66 1.67 1.65 1.59 1.49 1.43 1.38 1.31 1.30 1.32 1.30 1.32 1.28 1.06
0.53 0.54 0.61 0.66 0.75 0.85 0.93 0.91 0.90 0.96 1.05 1.07 1.15 1.24 1.44 1.58 1.62 1.66 1.62 1.52 1.50 1.55 1.56 1.54 1.55 1.58 1.59 1.58 1.59 1.61 1.58 1.57 1.54 1.49 1.41 1.30 1.18 1.17 1.19 1.22 1.29 1.44 1.35
0.52 0.50 0.56 0.59 0.64 0.73 0.83 0.84 0.83 0.85 0.98 1.02 1.04 1.07 1.16 1.26 1.40 1.50 1.41 1.35 1.35 1.37 1.39 1.38 1.37 1.39 1.41 1.42 1.46 1.45 1.43 1.40 1.36 1.36 1.38 1.33 1.22 1.17 1.19 1.25 1.31 1.40 1.46
0.52 0.54 0.58 0.60 0.64 0.72 0.73 0.73 0.79 0.84 0.93 0.97 0.93 0.92 0.97 1.03 1.10 1.18 1.21 1.17 1.19 1.18 1.18 1.17 1.18 1.17 1.20 1.24 1.27 1.24 1.24 1.29 1.27 1.26 1.31 1.32 1.29 1.29 1.27 1.32 1.38 1.44 1.53
0.50 0.52 0.54 0.57 0.63 0.67 0.65 0.62 0.68 0.75 0.85 0.88 0.83 0.81 0.86 0.91 0.95 0.97 1.01 1.02 1.04 1.05 1.06 1.07 1.06 1.02 1.01 1.05 1.08 1.10 1.10 1.13 1.15 1.17 1.23 1.27 1.29 1.35 1.35 1.39 1.42 1.44 1.45
0.37 0.39 0.41 0.44 0.47 0.48 0.50 0.56 0.58 0.57 0.63 0.66 0.64 0.63 0.65 0.71 0.79 0.82 0.81 0.84 0.89 0.92 0.94 0.96 0.97 0.97 0.94 0.96 0.98 0.97 0.98 1.00 1.02 1.03 1.07 1.08 1.15 1.24 1.27 1.31 1.35 1.34 1.33
0.29 0.31 0.32 0.32 0.36 0.39 0.42 0.47 0.46 0.46 0.53 0.54 0.52 0.52 0.53 0.55 0.60 0.66 0.65 0.66 0.69 0.75 0.78 0.83 0.86 0.87 0.88 0.91 0.95 0.99 0.98 0.95 0.94 0.94 0.97 0.99 1.03 1.09 1.15 1.23 1.26 1.26 1.27
0.23 0.26 0.27 0.27 0.31 0.33 0.36 0.38 0.41 0.48 0.55 0.57 0.56 0.52 0.50 0.50 0.53 0.58 0.59 0.58 0.58 0.58 0.59 0.65 0.73 0.78 0.80 0.84 0.87 0.90 0.93 0.94 0.94 0.95 1.00 1.05 1.17 1.17 1.13 1.11 1.09 1.12 1.18
0.19 0.20 0.22 0.23 0.25 0.30 0.34 0.38 0.44 0.54 0.59 0.62 0.59 0.57 0.52 0.49 0.47 0.47 0.48 0.48 0.49 0.50 0.53 0.57 0.60 0.67 0.74 0.93 0.91 0.84 0.84 0.91 0.96 0.98 0.98 1.02 1.13 1.11 1.08 1.03 0.99 1.01 1.09
0.17 0.18 0.18 0.21 0.23 0.31 0.39 0.46 0.51 0.60 0.63 0.65 0.61 0.56 0.52 0.49 0.45 0.42 0.43 0.44 0.46 0.49 0.53 0.56 0.59 0.64 0.79 0.97 0.94 0.96 0.87 0.89 0.94 0.96 0.95 0.90 0.87 0.91 0.81 0.86 0.91 0.92 0.92
0.12 0.13 0.14 0.16 0.17 0.23 0.33 0.42 0.49 0.61 0.65 0.66 0.66 0.64 0.63 0.63 0.64 0.64 0.64 0.64 0.61 0.63 0.68 0.72 0.75 0.78 0.89 0.97 0.90 0.87 0.79 0.82 0.84 0.82 0.80 0.76 0.71 0.69 0.71 0.73 0.78 0.70 0.65
0.10 0.10 0.11 0.12 0.12 0.15 0.23 0.32 0.45 0.61 0.74 0.81 0.82 0.83 0.86 0.91 0.94 0.96 0.96 0.95 0.94 0.92 0.89 0.86 0.81 0.77 0.78 0.81 0.77 0.73 0.67 0.68 0.66 0.63 0.62 0.62 0.59 0.68 0.77 0.72 0.67 0.60 0.57
0.13 0.12 0.12 0.14 0.16 0.19 0.25 0.39 0.56 0.71 0.82 0.87 0.92 0.96 1.03 1.09 1.06 1.03 1.00 0.94 0.89 0.87 0.85 0.82 0.77 0.70 0.62 0.60 0.57 0.55 0.51 0.50 0.46 0.44 0.44 0.51 0.53 0.64 0.73 0.65 0.63 0.59 0.50
0.23 0.24 0.25 0.27 0.29 0.31 0.39 0.54 0.65 0.75 0.79 0.80 0.82 0.87 0.87 0.89 0.87 0.83 0.79 0.75 0.70 0.64 0.60 0.56 0.51 0.46 0.43 0.42 0.42 0.43 0.41 0.41 0.42 0.41 0.39 0.41 0.53 0.59 0.63 0.64 0.57 0.56 0.58
0.27 0.34 0.39 0.41 0.42 0.44 0.50 0.58 0.60 0.60 0.58 0.57 0.57 0.56 0.53 0.50 0.51 0.52 0.51 0.49 0.48 0.44 0.41 0.37 0.35 0.32 0.31 0.32 0.34 0.40 0.43 0.46 0.43 0.41 0.38 0.41 0.56 0.62 0.62 0.59 0.57 0.64 0.68
0.13 0.17 0.24 0.28 0.28 0.28 0.31 0.35 0.31 0.27 0.25 0.23 0.24 0.24 0.23 0.24 0.26 0.28 0.29 0.30 0.31 0.32 0.31 0.30 0.30 0.29 0.27 0.30 0.35 0.39 0.46 0.52 0.49 0.44 0.47 0.52 0.57 0.60 0.57 0.57 0.60 0.61 0.58
0.09 0.09 0.09 0.10 0.10 0.11 0.12 0.14 0.12 0.09 0.09 0.10 0.11 0.14 0.16 0.19 0.21 0.24 0.25 0.27 0.27 0.27 0.28 0.28 0.28 0.27 0.26 0.27 0.31 0.36 0.43 0.51 0.53 0.51 0.52 0.55 0.57 0.57 0.55 0.55 0.55 0.53 0.53
0.10 0.10 0.10 0.09 0.09 0.09 0.10 0.10 0.10 0.09 0.10 0.10 0.11 0.13 0.15 0.18 0.20 0.22 0.25 0.28 0.28 0.29 0.33 0.32 0.31 0.33 0.32 0.29 0.39 0.47 0.49 0.53 0.57 0.62 0.59 0.55 0.52 0.51 0.50 0.49 0.48 0.50 0.53
0.12 0.12 0.12 0.13 0.14 0.15 0.16 0.16 0.16 0.15 0.15 0.15 0.16 0.18 0.20 0.21 0.21 0.23 0.23 0.26 0.29 0.32 0.34 0.35 0.35 0.33 0.34 0.38 0.46 0.51 0.55 0.60 0.69 0.74 0.64 0.53 0.47 0.45 0.45 0.47 0.49 0.51 0.53

GEFSMW_prec_meanprecacc_228.txt.gz
Total_Precipitation_Accumulation
1.01 1.14 1.21 1.48 1.74 1.92 2.10 2.25 2.33 2.38 2.60 2.75 2.73 2.65 2.49 2.26 2.16 2.12 2.00 1.87 1.79 1.85 1.85 1.71 1.61 1.60 1.50 1.36 1.27 1.18 1.17 1.15 1.13 1.17 1.07 0.94 0.86 0.80 0.71 0.62 0.58 0.54 0.52
0.87 1.00 1.07 1.20 1.42 1.65 1.90 2.15 2.27 2.35 2.34 2.38 2.58 2.72 2.79 2.62 2.33 2.16 2.07 1.96 1.88 1.87 1.86 1.82 1.76 1.68 1.63 1.57 1.51 1.46 1.38 1.33 1.35 1.37 1.37 1.20 1.02 0.82 0.71 0.68 0.64 0.61 0.60
0.72 0.82 0.93 1.13 1.26 1.41 1.67 1.99 2.16 2.30 2.31 2.32 2.57 2.77 2.92 2.76 2.44 2.08 1.91 1.92 1.94 1.94 1.87 1.86 1.89 1.82 1.72 1.61 1.57 1.52 1.49 1.43 1.41 1.43 1.53 1.37 1.09 0.83 0.69 0.62 0.61 0.61 0.62
0.61 0.67 0.80 0.96 1.09 1.26 1.44 1.63 1.84 2.03 2.23 2.31 2.37 2.40 2.49 2.48 2.23 2.11 2.01 2.00 1.99 1.99 1.95 1.91 1.91 1.89 1.80 1.64 1.60 1.54 1.47 1.46 1.43 1.41 1.36 1.27 1.07 0.98 0.85 0.68 0.62 0.62 0.62
0.64 0.64 0.76 0.93 0.99 1.11 1.36 1.51 1.58 1.79 2.03 2.18 2.23 2.34 2.30 2.32 2.36 2.32 2.22 2.11 2.05 2.00 1.94 1.90 1.89 1.81 1.75 1.71 1.73 1.67 1.61 1.54 1.46 1.39 1.36 1.35 1.19 1.01 0.98 0.84 0.68 0.68 0.66
0.71 0.75 0.85 0.93 0.97 1.04 1.23 1.45 1.46 1.55 1.71 1.95 2.17 2.22 2.15 2.16 2.21 2.19 2.12 2.09 2.07 2.04 1.95 1.84 1.80 1.76 1.75 1.74 1.77 1.82 1.75 1.69 1.62 1.52 1.41 1.42 1.38 1.21 1.14 1.08 0.87 0.78 0.72
0.67 0.76 0.84 0.85 0.89 0.97 1.09 1.27 1.37 1.44 1.53 1.69 1.88 2.06 2.12 2.11 2.13 2.14 2.08 1.97 1.88 1.79 1.77 1.78 1.73 1.68 1.63 1.66 1.70 1.77 1.77 1.71 1.68 1.59 1.52 1.47 1.40 1.29 1.27 1.25 1.09 0.97 0.84
0.54 0.59 0.70 0.78 0.87 0.93 0.98 1.03 1.09 1.16 1.23 1.31 1.44 1.62 1.84 1.92 1.86 1.88 1.86 1.81 1.73 1.69 1.69 1.68 1.69 1.69 1.66 1.63 1.66 1.69 1.71 1.69 1.63 1.53 1.47 1.42 1.34 1.34 1.35 1.33 1.35 1.32 1.10
0.56 0.56 0.62 0.67 0.76 0.86 0.94 0.92 0.91 0.97 1.06 1.09 1.16 1.25 1.45 1.59 1.64 1.68 1.64 1.55 1.52 1.56 1.57 1.55 1.56 1.59 1.60 1.60 1.63 1.66 1.63 1.62 1.59 1.54 1.45 1.35 1.23 1.21 1.24 1.26 1.33 1.48 1.40
0.55 0.53 0.58 0.61 0.65 0.74 0.85 0.86 0.85 0.86 0.99 1.04 1.05 1.09 1.17 1.27 1.42 1.51 1.42 1.37 1.37 1.39 1.40 1.39 1.38 1.40 1.42 1.44 1.48 1.50 1.47 1.46 1.43 1.42 1.43 1.38 1.28 1.23 1.24 1.29 1.35 1.44 1.50
0.57 0.58 0.61 0.63 0.67 0.74 0.77 0.77 0.83 0.86 0.96 0.99 0.95 0.93 0.98 1.04 1.10 1.19 1.21 1.18 1.21 1.20 1.20 1.19 1.19 1.18 1.21 1.25 1.29 1.27 1.28 1.34 1.34 1.33 1.36 1.38 1.34 1.34 1.32 1.36 1.41 1.48 1.56
0.53 0.56 0.57 0.60 0.66 0.71 0.70 0.66 0.72 0.78 0.88 0.91 0.85 0.83 0.86 0.92 0.95 0.97 1.02 1.02 1.04 1.06 1.08 1.09 1.08 1.04 1.02 1.06 1.09 1.11 1.12 1.16 1.20 1.25 1.30 1.33 1.34 1.38 1.39 1.43 1.45 1.46 1.47
0.39 0.41 0.43 0.46 0.50 0.52 0.55 0.60 0.61 0.59 0.65 0.69 0.66 0.64 0.66 0.72 0.79 0.82 0.82 0.84 0.90 0.93 0.95 0.97 0.98 0.98 0.95 0.97 0.99 0.98 0.99 1.02 1.04 1.08 1.13 1.14 1.21 1.27 1.30 1.35 1.38 1.36 1.35
0.30 0.33 0.34 0.34 0.38 0.41 0.45 0.50 0.48 0.48 0.55 0.56 0.54 0.54 0.54 0.56 0.61 0.66 0.66 0.66 0.71 0.76 0.79 0.84 0.87 0.88 0.89 0.92 0.96 1.00 0.99 0.96 0.96 0.96 1.00 1.03 1.08 1.13 1.18 1.26 1.30 1.29 1.29
0.25 0.28 0.29 0.30 0.34 0.36 0.39 0.42 0.45 0.51 0.57 0.59 0.58 0.54 0.51 0.51 0.54 0.59 0.60 0.58 0.59 0.59 0.60 0.66 0.74 0.79 0.82 0.85 0.88 0.91 0.95 0.96 0.95 0.97 1.01 1.07 1.19 1.20 1.15 1.14 1.13 1.15 1.21
0.21 0.22 0.23 0.25 0.29 0.34 0.39 0.43 0.49 0.58 0.62 0.64 0.61 0.58 0.53 0.50 0.47 0.48 0.49 0.49 0.50 0.51 0.54 0.58 0.61 0.68 0.75 0.94 0.92 0.85 0.84 0.92 0.97 1.00 0.99 1.03 1.15 1.13 1.11 1.06 1.02 1.05 1.13
0.18 0.19 0.20 0.23 0.26 0.36 0.44 0.51 0.56 0.64 0.66 0.68 0.63 0.57 0.53 0.50 0.46 0.43 0.44 0.46 0.48 0.50 0.54 0.57 0.60 0.66 0.80 0.98 0.94 0.97 0.87 0.90 0.95 0.97 0.96 0.91 0.88 0.92 0.82 0.87 0.93 0.94 0.95
0.13 0.14 0.16 0.18 0.20 0.27 0.38 0.46 0.53 0.66 0.69 0.69 0.68 0.66 0.64 0.64 0.65 0.65 0.66 0.65 0.63 0.65 0.69 0.74 0.76 0.80 0.90 0.98 0.91 0.88 0.80 0.83 0.84 0.82 0.81 0.76 0.71 0.70 0.72 0.74 0.79 0.71 0.66
0.12 0.12 0.12 0.14 0.14 0.18 0.27 0.36 0.48 0.64 0.77 0.84 0.84 0.85 0.88 0.93 0.96 0.97 0.97 0.96 0.96 0.95 0.92 0.88 0.82 0.79 0.79 0.83 0.79 0.75 0.68 0.69 0.67 0.64 0.63 0.63 0.61 0.69 0.79 0.73 0.68 0.61 0.58
0.16 0.15 0.14 0.16 0.18 0.21 0.28 0.42 0.59 0.74 0.84 0.89 0.94 0.98 1.05 1.11 1.07 1.05 1.02 0.96 0.91 0.90 0.88 0.85 0.79 0.71 0.64 0.62 0.58 0.57 0.53 0.52 0.48 0.45 0.46 0.53 0.55 0.67 0.75 0.68 0.66 0.62 0.52
0.26 0.27 0.28 0.30 0.31 0.33 0.41 0.56 0.67 0.77 0.81 0.83 0.85 0.88 0.89 0.91 0.88 0.85 0.81 0.77 0.72 0.67 0.62 0.58 0.54 0.48 0.45 0.44 0.43 0.45 0.42 0.42 0.43 0.43 0.41 0.43 0.55 0.61 0.66 0.68 0.60 0.59 0.61
0.29 0.36 0.42 0.44 0.45 0.47 0.53 0.61 0.63 0.63 0.61 0.59 0.59 0.58 0.54 0.51 0.52 0.53 0.53 0.51 0.50 0.47 0.43 0.39 0.37 0.34 0.33 0.34 0.36 0.41 0.45 0.47 0.45 0.43 0.40 0.43 0.57 0.64 0.64 0.62 0.60 0.67 0.71
0.15 0.19 0.26 0.30 0.31 0.31 0.34 0.38 0.34 0.30 0.27 0.24 0.25 0.26 0.25 0.25 0.27 0.29 0.30 0.31 0.33 0.34 0.34 0.33 0.33 0.31 0.30 0.32 0.38 0.41 0.48 0.54 0.50 0.45 0.48 0.53 0.59 0.61 0.59 0.59 0.62 0.63 0.59
0.10 0.11 0.11 0.12 0.12 0.13 0.14 0.16 0.14 0.11 0.10 0.11 0.12 0.14 0.17 0.20 0.22 0.25 0.27 0.28 0.28 0.28 0.30 0.31 0.30 0.30 0.29 0.29 0.33 0.38 0.45 0.53 0.55 0.53 0.53 0.56 0.57 0.57 0.55 0.56 0.56 0.54 0.53
0.12 0.12 0.11 0.11 0.11 0.11 0.11 0.11 0.11 0.10 0.10 0.11 0.12 0.13 0.16 0.19 0.20 0.22 0.26 0.30 0.30 0.31 0.35 0.34 0.33 0.35 0.34 0.31 0.41 0.49 0.51 0.55 0.60 0.64 0.61 0.57 0.53 0.51 0.50 0.49 0.49 0.50 0.53
0.14 0.13 0.14 0.14 0.16 0.16 0.17 0.17 0.17 0.16 0.15 0.16 0.16 0.19 0.20 0.21 0.22 0.23 0.24 0.27 0.31 0.34 0.36 0.37 0.37 0.34 0.36 0.40 0.47 0.52 0.56 0.62 0.71 0.76 0.66 0.54 0.48 0.46 0.46 0.48 0.50 0.51 0.53

GEFSMW_prec_meanprecacc_234.txt.gz
Total_Precipitation_Accumulation
1.02 1.14 1.21 1.49 1.74 1.92 2.10 2.25 2.35 2.42 2.64 2.80 2.78 2.69 2.52 2.29 2.18 2.15 2.03 1.89 1.81 1.88 1.88 1.74 1.63 1.63 1.54 1.39 1.30 1.21 1.20 1.18 1.15 1.21 1.12 0.99 0.93 0.87 0.80 0.70 0.63 0.59 0.55
0.88 1.01 1.07 1.20 1.42 1.65 1.90 2.15 2.27 2.36 2.36 2.41 2.63 2.78 2.84 2.66 2.36 2.19 2.09 1.99 1.90 1.90 1.88 1.84 1.78 1.71 1.67 1.61 1.55 1.49 1.40 1.36 1.37 1.40 1.42 1.27 1.11 0.92 0.82 0.80 0.75 0.68 0.64
0.73 0.83 0.93 1.13 1.27 1.41 1.67 1.99 2.17 2.31 2.32 2.34 2.59 2.81 2.98 2.82 2.48 2.11 1.94 1.94 1.96 1.97 1.89 1.88 1.91 1.85 1.76 1.66 1.62 1.57 1.52 1.47 1.44 1.45 1.56 1.42 1.16 0.91 0.79 0.73 0.71 0.70 0.68
0.62 0.68 0.81 0.98 1.10 1.26 1.45 1.63 1.85 2.04 2.24 2.33 2.39 2.42 2.52 2.52 2.26 2.13 2.03 2.01 2.01 2.01 1.97 1.93 1.93 1.91 1.84 1.68 1.64 1.58 1.51 1.50 1.47 1.44 1.39 1.29 1.11 1.03 0.92 0.77 0.70 0.70 0.69
0.65 0.65 0.78 0.96 1.02 1.12 1.37 1.51 1.59 1.80 2.03 2.19 2.24 2.37 2.34 2.35 2.39 2.34 2.24 2.14 2.07 2.02 1.96 1.92 1.91 1.83 1.78 1.74 1.77 1.70 1.65 1.57 1.49 1.43 1.39 1.39 1.22 1.05 1.03 0.90 0.75 0.75 0.73
0.72 0.76 0.86 0.97 1.00 1.06 1.24 1.45 1.46 1.55 1.72 1.97 2.19 2.24 2.18 2.19 2.23 2.20 2.14 2.11 2.09 2.06 1.97 1.87 1.82 1.78 1.77 1.76 1.79 1.83 1.78 1.73 1.66 1.56 1.44 1.45 1.43 1.26 1.19 1.13 0.93 0.85 0.78
0.68 0.76 0.86 0.87 0.92 1.01 1.12 1.29 1.38 1.46 1.54 1.71 1.90 2.08 2.15 2.14 2.14 2.15 2.10 1.99 1.90 1.81 1.79 1.80 1.75 1.69 1.64 1.67 1.71 1.78 1.79 1.74 1.71 1.64 1.55 1.50 1.44 1.34 1.33 1.30 1.15 1.02 0.89
0.56 0.60 0.71 0.80 0.89 0.97 1.01 1.05 1.11 1.18 1.25 1.33 1.46 1.65 1.87 1.94 1.88 1.90 1.88 1.83 1.74 1.71 1.70 1.70 1.70 1.70 1.67 1.64 1.68 1.71 1.73 1.71 1.66 1.56 1.49 1.44 1.37 1.37 1.40 1.38 1.41 1.37 1.15
0.57 0.58 0.64 0.68 0.77 0.88 0.98 0.96 0.95 0.99 1.08 1.11 1.18 1.28 1.48 1.62 1.66 1.70 1.66 1.57 1.54 1.58 1.58 1.57 1.58 1.60 1.62 1.61 1.64 1.67 1.65 1.65 1.63 1.57 1.48 1.37 1.25 1.23 1.26 1.29 1.38 1.53 1.46
0.58 0.55 0.60 0.62 0.67 0.76 0.87 0.89 0.89 0.90 1.03 1.07 1.08 1.12 1.20 1.30 1.45 1.54 1.44 1.38 1.38 1.40 1.42 1.41 1.40 1.42 1.44 1.45 1.50 1.52 1.50 1.49 1.47 1.46 1.47 1.42 1.31 1.25 1.27 1.32 1.39 1.48 1.54
0.59 0.61 0.64 0.64 0.68 0.76 0.78 0.80 0.86 0.89 0.99 1.03 0.99 0.97 1.01 1.06 1.13 1.21 1.24 1.20 1.22 1.22 1.22 1.22 1.23 1.22 1.24 1.27 1.31 1.30 1.32 1.38 1.38 1.38 1.41 1.42 1.39 1.38 1.36 1.39 1.45 1.52 1.60
0.54 0.57 0.58 0.61 0.67 0.73 0.72 0.69 0.75 0.81 0.92 0.95 0.88 0.86 0.89 0.94 0.97 0.99 1.04 1.05 1.07 1.08 1.11 1.13 1.11 1.08 1.05 1.09 1.12 1.14 1.15 1.19 1.23 1.29 1.34 1.38 1.39 1.43 1.45 1.48 1.50 1.50 1.51
0.40 0.42 0.44 0.47 0.51 0.53 0.56 0.62 0.64 0.63 0.69 0.72 0.68 0.67 0.68 0.73 0.81 0.84 0.83 0.86 0.92 0.95 0.97 1.01 1.02 1.01 0.98 1.01 1.02 1.01 1.02 1.04 1.07 1.12 1.18 1.20 1.26 1.32 1.35 1.40 1.44 1.41 1.39
0.31 0.33 0.35 0.35 0.40 0.43 0.46 0.52 0.52 0.52 0.58 0.59 0.56 0.56 0.57 0.58 0.63 0.68 0.67 0.67 0.71 0.77 0.81 0.86 0.90 0.91 0.92 0.95 1.00 1.03 1.02 0.99 0.99 1.00 1.05 1.09 1.13 1.17 1.23 1.31 1.35 1.34 1.33
0.26 0.29 0.31 0.32 0.35 0.38 0.41 0.45 0.48 0.54 0.60 0.62 0.61 0.56 0.53 0.53 0.56 0.61 0.62 0.60 0.60 0.60 0.61 0.67 0.75 0.81 0.83 0.87 0.91 0.94 0.97 0.98 0.98 1.00 1.04 1.11 1.24 1.26 1.21 1.19 1.18 1.19 1.25
0.22 0.23 0.25 0.27 0.30 0.36 0.42 0.47 0.52 0.62 0.66 0.68 0.64 0.60 0.55 0.52 0.49 0.49 0.50 0.50 0.51 0.52 0.55 0.59 0.62 0.69 0.76 0.96 0.95 0.87 0.86 0.95 1.00 1.02 1.01 1.05 1.17 1.16 1.15 1.11 1.08 1.10 1.18
0.20 0.21 0.22 0.25 0.28 0.38 0.47 0.55 0.60 0.68 0.70 0.72 0.66 0.60 0.55 0.51 0.47 0.44 0.45 0.47 0.49 0.51 0.55 0.58 0.62 0.67 0.81 1.00 0.97 0.99 0.89 0.91 0.96 0.99 0.97 0.93 0.89 0.94 0.83 0.90 0.98 1.00 1.00
0.16 0.17 0.18 0.20 0.22 0.28 0.40 0.49 0.57 0.69 0.73 0.73 0.72 0.69 0.67 0.66 0.67 0.66 0.66 0.66 0.64 0.66 0.71 0.75 0.77 0.81 0.92 1.01 0.93 0.91 0.82 0.84 0.85 0.83 0.82 0.77 0.72 0.71 0.73 0.75 0.81 0.74 0.70
0.15 0.15 0.15 0.16 0.16 0.20 0.29 0.38 0.51 0.67 0.81 0.88 0.88 0.89 0.92 0.96 0.99 1.00 0.99 0.98 0.97 0.96 0.93 0.89 0.84 0.80 0.81 0.85 0.81 0.77 0.70 0.71 0.69 0.65 0.64 0.64 0.61 0.70 0.80 0.74 0.70 0.64 0.61
0.19 0.17 0.17 0.18 0.20 0.24 0.30 0.44 0.62 0.78 0.89 0.94 0.98 1.02 1.09 1.15 1.11 1.08 1.04 0.98 0.93 0.92 0.90 0.87 0.81 0.73 0.66 0.64 0.61 0.59 0.54 0.53 0.50 0.47 0.47 0.54 0.56 0.68 0.77 0.69 0.67 0.64 0.53
0.27 0.29 0.29 0.31 0.33 0.36 0.44 0.59 0.70 0.81 0.86 0.87 0.89 0.92 0.93 0.95 0.92 0.88 0.83 0.79 0.74 0.68 0.63 0.59 0.56 0.50 0.47 0.47 0.46 0.48 0.44 0.45 0.46 0.45 0.43 0.44 0.57 0.63 0.68 0.69 0.61 0.61 0.62
0.30 0.37 0.43 0.46 0.47 0.49 0.57 0.65 0.66 0.66 0.64 0.62 0.62 0.61 0.57 0.54 0.55 0.56 0.56 0.53 0.52 0.49 0.45 0.41 0.39 0.36 0.35 0.37 0.39 0.45 0.48 0.51 0.48 0.45 0.42 0.45 0.60 0.66 0.66 0.63 0.62 0.69 0.73
0.16 0.20 0.27 0.32 0.32 0.33 0.37 0.41 0.38 0.33 0.29 0.26 0.27 0.28 0.27 0.27 0.29 0.31 0.33 0.34 0.35 0.36 0.36 0.34 0.34 0.32 0.31 0.34 0.40 0.44 0.51 0.57 0.53 0.47 0.51 0.55 0.60 0.63 0.60 0.60 0.63 0.65 0.61
0.11 0.11 0.12 0.14 0.14 0.15 0.17 0.19 0.16 0.13 0.12 0.13 0.14 0.16 0.19 0.21 0.23 0.27 0.29 0.31 0.31 0.31 0.32 0.33 0.32 0.31 0.30 0.30 0.34 0.40 0.47 0.56 0.58 0.56 0.56 0.59 0.59 0.59 0.57 0.57 0.58 0.56 0.55
0.12 0.12 0.12 0.12 0.13 0.13 0.13 0.13 0.13 0.12 0.12 0.12 0.13 0.15 0.17 0.20 0.21 0.23 0.27 0.32 0.32 0.34 0.38 0.37 0.35 0.37 0.36 0.32 0.42 0.51 0.53 0.57 0.62 0.67 0.65 0.60 0.55 0.53 0.52 0.51 0.50 0.52 0.55
0.15 0.14 0.15 0.15 0.17 0.18 0.19 0.19 0.19 0.17 0.17 0.17 0.18 0.20 0.22 0.22 0.23 0.24 0.25 0.29 0.33 0.36 0.38 0.39 0.39 0.36 0.38 0.42 0.49 0.54 0.58 0.64 0.73 0.79 0.70 0.57 0.51 0.48 0.48 0.50 0.51 0.53 0.55

GEFSMW_prec_meanprecacc_240.txt.gz
Total_Precipitation_Accumulation
1.04 1.16 1.23 1.50 1.76 1.93 2.11 2.26 2.36 2.45 2.68 2.85 2.83 2.71 2.54 2.30 2.21 2.19 2.09 1.97 1.88 1.93 1.92 1.77 1.66 1.66 1.58 1.44 1.35 1.27 1.26 1.24 1.21 1.28 1.19 1.06 0.96 0.90 0.82 0.73 0.67 0.64 0.62
0.91 1.03 1.10 1.22 1.44 1.66 1.91 2.16 2.28 2.37 2.38 2.44 2.66 2.81 2.86 2.67 2.38 2.22 2.14 2.04 1.96 1.96 1.94 1.90 1.82 1.74 1.69 1.64 1.59 1.54 1.45 1.41 1.43 1.47 1.51 1.37 1.20 0.97 0.84 0.83 0.78 0.71 0.69
0.78 0.86 0.96 1.15 1.28 1.42 1.67 1.99 2.17 2.31 2.33 2.35 2.61 2.83 2.99 2.83 2.49 2.14 1.97 1.98 2.00 2.01 1.93 1.93 1.97 1.90 1.79 1.68 1.64 1.60 1.57 1.51 1.49 1.51 1.62 1.48 1.22 0.97 0.83 0.76 0.73 0.72 0.71
0.66 0.70 0.82 1.00 1.12 1.28 1.45 1.63 1.85 2.04 2.24 2.33 2.40 2.44 2.55 2.55 2.29 2.16 2.06 2.05 2.05 2.05 2.01 1.97 1.97 1.96 1.89 1.72 1.67 1.61 1.56 1.56 1.53 1.50 1.42 1.32 1.14 1.06 0.95 0.80 0.73 0.73 0.73
0.67 0.67 0.80 0.98 1.03 1.14 1.38 1.51 1.59 1.80 2.04 2.20 2.25 2.38 2.36 2.39 2.44 2.39 2.28 2.17 2.11 2.05 2.00 1.96 1.95 1.87 1.81 1.78 1.80 1.73 1.69 1.62 1.54 1.47 1.42 1.41 1.24 1.08 1.05 0.93 0.78 0.78 0.77
0.74 0.78 0.89 0.98 1.01 1.06 1.24 1.46 1.47 1.56 1.72 1.97 2.19 2.25 2.20 2.24 2.28 2.27 2.19 2.15 2.13 2.09 2.00 1.90 1.86 1.81 1.80 1.80 1.83 1.87 1.81 1.77 1.71 1.59 1.47 1.47 1.45 1.28 1.21 1.14 0.94 0.87 0.81
0.69 0.78 0.87 0.88 0.93 1.02 1.13 1.30 1.39 1.47 1.55 1.72 1.92 2.09 2.18 2.19 2.20 2.21 2.15 2.03 1.93 1.84 1.82 1.84 1.78 1.72 1.67 1.70 1.75 1.83 1.82 1.77 1.74 1.68 1.60 1.53 1.46 1.36 1.34 1.32 1.16 1.04 0.91
0.57 0.61 0.72 0.80 0.89 0.98 1.03 1.08 1.13 1.19 1.27 1.36 1.49 1.67 1.92 2.03 1.95 1.96 1.93 1.88 1.78 1.74 1.73 1.73 1.73 1.73 1.70 1.67 1.71 1.74 1.76 1.74 1.68 1.58 1.53 1.48 1.40 1.39 1.42 1.40 1.42 1.39 1.17
0.58 0.58 0.65 0.69 0.77 0.89 1.00 0.99 0.98 1.02 1.11 1.14 1.22 1.34 1.55 1.71 1.74 1.77 1.71 1.62 1.58 1.61 1.60 1.59 1.60 1.63 1.65 1.64 1.67 1.70 1.68 1.68 1.65 1.59 1.50 1.39 1.27 1.26 1.28 1.31 1.39 1.55 1.49
0.59 0.56 0.60 0.63 0.67 0.76 0.88 0.92 0.93 0.94 1.06 1.10 1.12 1.19 1.29 1.39 1.54 1.62 1.50 1.44 1.43 1.44 1.44 1.43 1.42 1.44 1.47 1.49 1.53 1.55 1.53 1.52 1.50 1.48 1.49 1.43 1.32 1.27 1.28 1.34 1.40 1.49 1.56
0.60 0.61 0.64 0.65 0.68 0.76 0.79 0.81 0.88 0.92 1.02 1.06 1.01 1.01 1.08 1.14 1.22 1.29 1.32 1.26 1.26 1.25 1.25 1.24 1.25 1.24 1.26 1.30 1.35 1.34 1.36 1.42 1.42 1.41 1.43 1.44 1.41 1.39 1.37 1.41 1.47 1.54 1.62
0.55 0.58 0.59 0.61 0.67 0.73 0.73 0.70 0.76 0.83 0.94 0.97 0.91 0.89 0.93 0.99 1.04 1.06 1.12 1.12 1.10 1.10 1.13 1.15 1.14 1.11 1.08 1.12 1.15 1.18 1.19 1.23 1.27 1.32 1.37 1.40 1.41 1.46 1.47 1.50 1.52 1.53 1.53
0.41 0.42 0.45 0.48 0.51 0.54 0.57 0.63 0.65 0.65 0.71 0.74 0.71 0.70 0.71 0.77 0.85 0.88 0.89 0.93 0.97 0.98 1.00 1.03 1.05 1.05 1.03 1.04 1.06 1.05 1.07 1.09 1.12 1.15 1.22 1.24 1.29 1.34 1.38 1.43 1.46 1.44 1.42
0.32 0.35 0.37 0.37 0.41 0.44 0.47 0.53 0.52 0.53 0.60 0.61 0.59 0.60 0.60 0.61 0.66 0.71 0.71 0.72 0.78 0.82 0.85 0.90 0.95 0.95 0.97 1.01 1.04 1.07 1.06 1.04 1.03 1.03 1.09 1.13 1.16 1.20 1.25 1.34 1.37 1.36 1.36
0.27 0.30 0.32 0.34 0.38 0.40 0.43 0.45 0.49 0.55 0.62 0.65 0.64 0.60 0.59 0.58 0.59 0.64 0.65 0.63 0.64 0.64 0.66 0.71 0.79 0.87 0.90 0.93 0.96 0.98 1.02 1.03 1.03 1.04 1.08 1.15 1.28 1.29 1.24 1.21 1.19 1.21 1.28
0.24 0.25 0.27 0.29 0.33 0.39 0.44 0.48 0.54 0.63 0.67 0.71 0.67 0.65 0.60 0.57 0.53 0.53 0.53 0.54 0.55 0.56 0.59 0.63 0.64 0.72 0.81 1.04 1.02 0.92 0.91 0.99 1.04 1.07 1.06 1.09 1.21 1.20 1.18 1.13 1.09 1.12 1.20
0.21 0.22 0.24 0.27 0.30 0.40 0.49 0.56 0.62 0.70 0.72 0.74 0.69 0.64 0.60 0.56 0.52 0.49 0.48 0.51 0.53 0.56 0.60 0.63 0.65 0.69 0.84 1.05 1.04 1.06 0.94 0.95 1.01 1.03 1.02 0.97 0.93 0.97 0.86 0.91 1.00 1.01 1.02
0.17 0.19 0.20 0.22 0.24 0.31 0.42 0.51 0.59 0.72 0.75 0.76 0.76 0.73 0.71 0.71 0.72 0.70 0.71 0.71 0.68 0.70 0.76 0.80 0.82 0.83 0.93 1.03 0.97 0.97 0.88 0.89 0.90 0.87 0.86 0.81 0.76 0.74 0.75 0.77 0.83 0.76 0.71
0.17 0.16 0.17 0.18 0.19 0.22 0.31 0.40 0.53 0.70 0.83 0.91 0.93 0.94 0.97 1.01 1.04 1.04 1.03 1.02 1.02 1.01 0.98 0.94 0.88 0.83 0.83 0.87 0.84 0.81 0.75 0.76 0.74 0.70 0.68 0.68 0.64 0.73 0.82 0.76 0.71 0.65 0.62
0.20 0.19 0.18 0.20 0.22 0.26 0.32 0.46 0.64 0.80 0.92 0.98 1.02 1.07 1.14 1.20 1.17 1.14 1.10 1.02 0.98 0.97 0.96 0.93 0.87 0.78 0.69 0.67 0.64 0.62 0.58 0.57 0.54 0.51 0.51 0.59 0.60 0.71 0.80 0.71 0.69 0.65 0.54
0.28 0.29 0.30 0.33 0.35 0.37 0.45 0.62 0.73 0.85 0.90 0.91 0.93 0.97 0.97 0.99 0.97 0.94 0.89 0.83 0.79 0.74 0.70 0.65 0.61 0.55 0.51 0.51 0.50 0.51 0.48 0.48 0.49 0.48 0.47 0.48 0.60 0.66 0.71 0.72 0.64 0.63 0.64
0.30 0.38 0.44 0.47 0.48 0.51 0.58 0.67 0.69 0.70 0.68 0.67 0.67 0.66 0.61 0.58 0.59 0.61 0.60 0.57 0.57 0.54 0.51 0.46 0.43 0.39 0.38 0.39 0.41 0.48 0.52 0.54 0.51 0.48 0.45 0.48 0.63 0.69 0.69 0.66 0.65 0.72 0.76
0.16 0.20 0.28 0.32 0.33 0.34 0.39 0.43 0.40 0.35 0.32 0.29 0.31 0.32 0.31 0.31 0.32 0.35 0.37 0.38 0.40 0.41 0.41 0.40 0.38 0.36 0.33 0.35 0.41 0.45 0.53 0.60 0.55 0.50 0.54 0.57 0.63 0.66 0.63 0.63 0.67 0.68 0.64
0.11 0.12 0.13 0.14 0.15 0.16 0.18 0.20 0.18 0.15 0.14 0.15 0.16 0.19 0.21 0.24 0.26 0.30 0.32 0.34 0.34 0.35 0.36 0.37 0.37 0.35 0.32 0.32 0.35 0.40 0.48 0.57 0.59 0.58 0.59 0.61 0.61 0.60 0.59 0.59 0.60 0.58 0.57
0.13 0.13 0.13 0.13 0.14 0.13 0.14 0.14 0.15 0.13 0.13 0.14 0.15 0.16 0.19 0.22 0.24 0.26 0.30 0.36 0.36 0.38 0.42 0.42 0.40 0.41 0.39 0.34 0.44 0.52 0.54 0.59 0.64 0.69 0.67 0.62 0.57 0.55 0.54 0.53 0.52 0.54 0.57
0.15 0.15 0.15 0.16 0.18 0.19 0.20 0.20 0.20 0.19 0.18 0.19 0.19 0.21 0.23 0.24 0.24 0.26 0.27 0.31 0.36 0.39 0.42 0.43 0.43 0.39 0.41 0.44 0.50 0.55 0.59 0.65 0.75 0.81 0.71 0.59 0.52 0.50 0.50 0.52 0.53 0.54 0.56

GEFSMW_prec_meanprecacc_246.txt.gz
Total_Precipitation_Accumulation
1.06 1.18 1.25 1.54 1.82 1.96 2.13 2.27 2.38 2.47 2.71 2.88 2.86 2.75 2.57 2.34 2.23 2.22 2.14 2.04 1.96 2.01 1.98 1.82 1.70 1.70 1.62 1.49 1.41 1.34 1.33 1.29 1.25 1.31 1.24 1.11 1.01 0.95 0.86 0.76 0.69 0.66 0.64
0.93 1.06 1.13 1.28 1.51 1.72 1.93 2.18 2.29 2.38 2.39 2.45 2.68 2.83 2.89 2.70 2.41 2.24 2.16 2.08 2.01 2.02 2.01 1.98 1.89 1.79 1.74 1.69 1.65 1.61 1.53 1.48 1.48 1.52 1.56 1.43 1.27 1.04 0.91 0.88 0.81 0.74 0.72
0.82 0.91 1.04 1.24 1.35 1.48 1.71 2.01 2.18 2.31 2.34 2.36 2.63 2.86 3.02 2.86 2.52 2.17 1.99 2.00 2.02 2.06 1.99 1.99 2.03 1.97 1.86 1.74 1.69 1.66 1.63 1.58 1.56 1.57 1.69 1.54 1.27 1.02 0.90 0.82 0.78 0.76 0.75
0.70 0.74 0.86 1.04 1.17 1.32 1.49 1.66 1.87 2.05 2.24 2.34 2.41 2.45 2.57 2.57 2.31 2.20 2.09 2.07 2.07 2.08 2.05 2.01 2.03 2.02 1.95 1.79 1.74 1.68 1.62 1.62 1.59 1.57 1.49 1.39 1.18 1.10 1.01 0.87 0.79 0.77 0.77
0.69 0.69 0.83 1.01 1.08 1.17 1.40 1.54 1.62 1.81 2.05 2.20 2.26 2.38 2.38 2.41 2.46 2.42 2.32 2.20 2.13 2.08 2.03 2.00 2.00 1.92 1.87 1.84 1.87 1.81 1.76 1.69 1.60 1.53 1.48 1.48 1.30 1.12 1.10 0.99 0.86 0.84 0.82
0.75 0.79 0.90 1.00 1.03 1.09 1.25 1.46 1.47 1.56 1.73 1.99 2.20 2.26 2.21 2.25 2.30 2.29 2.23 2.19 2.16 2.11 2.03 1.94 1.91 1.87 1.85 1.85 1.88 1.92 1.88 1.84 1.77 1.65 1.53 1.53 1.50 1.33 1.25 1.19 1.01 0.94 0.88
0.70 0.78 0.88 0.89 0.94 1.03 1.14 1.31 1.40 1.47 1.57 1.74 1.93 2.11 2.20 2.21 2.22 2.23 2.18 2.08 1.98 1.87 1.85 1.88 1.83 1.77 1.72 1.75 1.80 1.88 1.87 1.84 1.82 1.75 1.65 1.58 1.51 1.40 1.39 1.37 1.22 1.10 0.97
0.58 0.62 0.72 0.81 0.90 0.98 1.04 1.08 1.14 1.20 1.28 1.37 1.50 1.69 1.95 2.06 1.99 1.99 1.96 1.92 1.83 1.80 1.78 1.77 1.79 1.79 1.75 1.72 1.75 1.79 1.81 1.79 1.74 1.64 1.58 1.53 1.45 1.44 1.46 1.44 1.47 1.45 1.23
0.60 0.59 0.65 0.69 0.78 0.89 1.00 1.00 0.99 1.03 1.12 1.15 1.23 1.36 1.58 1.74 1.78 1.80 1.75 1.66 1.62 1.66 1.67 1.66 1.66 1.69 1.71 1.69 1.71 1.75 1.73 1.72 1.69 1.63 1.54 1.44 1.32 1.30 1.32 1.34 1.43 1.59 1.53
0.60 0.57 0.61 0.63 0.68 0.77 0.88 0.92 0.93 0.95 1.07 1.11 1.14 1.22 1.32 1.41 1.57 1.65 1.55 1.49 1.47 1.49 1.50 1.49 1.48 1.50 1.52 1.54 1.59 1.60 1.57 1.57 1.54 1.53 1.53 1.47 1.35 1.30 1.32 1.37 1.42 1.51 1.59
0.61 0.63 0.65 0.65 0.69 0.76 0.79 0.81 0.88 0.93 1.03 1.07 1.04 1.05 1.11 1.16 1.25 1.33 1.38 1.32 1.32 1.31 1.30 1.29 1.30 1.30 1.32 1.36 1.41 1.40 1.41 1.46 1.46 1.45 1.47 1.47 1.43 1.42 1.40 1.44 1.49 1.56 1.64
0.56 0.60 0.60 0.62 0.68 0.74 0.73 0.70 0.77 0.83 0.95 0.99 0.94 0.93 0.98 1.04 1.08 1.11 1.20 1.21 1.19 1.19 1.21 1.21 1.19 1.16 1.14 1.18 1.21 1.23 1.24 1.28 1.32 1.37 1.42 1.45 1.45 1.49 1.50 1.53 1.54 1.55 1.54
0.42 0.45 0.47 0.49 0.52 0.54 0.58 0.63 0.66 0.65 0.71 0.76 0.74 0.74 0.76 0.83 0.91 0.94 0.96 1.01 1.05 1.08 1.11 1.13 1.10 1.10 1.08 1.10 1.11 1.09 1.11 1.13 1.16 1.20 1.26 1.28 1.34 1.40 1.42 1.47 1.50 1.47 1.44
0.33 0.37 0.40 0.39 0.42 0.45 0.48 0.54 0.54 0.54 0.61 0.63 0.62 0.63 0.65 0.68 0.73 0.78 0.76 0.78 0.83 0.90 0.96 1.03 1.02 1.00 1.02 1.06 1.09 1.11 1.10 1.08 1.07 1.07 1.13 1.17 1.21 1.25 1.30 1.38 1.41 1.40 1.39
0.28 0.32 0.36 0.37 0.40 0.42 0.44 0.47 0.51 0.57 0.63 0.66 0.66 0.63 0.63 0.63 0.66 0.71 0.71 0.68 0.69 0.70 0.73 0.81 0.88 0.93 0.94 0.99 1.01 1.03 1.06 1.06 1.06 1.07 1.12 1.19 1.33 1.35 1.29 1.27 1.25 1.25 1.31
0.24 0.26 0.29 0.33 0.36 0.41 0.46 0.50 0.56 0.65 0.69 0.72 0.69 0.67 0.63 0.61 0.58 0.59 0.60 0.60 0.60 0.60 0.64 0.68 0.71 0.78 0.86 1.08 1.07 0.96 0.94 1.02 1.07 1.10 1.09 1.12 1.25 1.24 1.23 1.20 1.16 1.17 1.24
0.22 0.23 0.25 0.30 0.34 0.43 0.52 0.59 0.65 0.73 0.75 0.77 0.71 0.66 0.62 0.59 0.57 0.54 0.55 0.57 0.59 0.61 0.64 0.67 0.70 0.74 0.87 1.08 1.08 1.10 0.98 0.99 1.04 1.06 1.05 1.00 0.96 1.01 0.90 0.97 1.05 1.06 1.06
0.18 0.20 0.22 0.23 0.26 0.33 0.44 0.54 0.61 0.75 0.79 0.79 0.78 0.75 0.74 0.75 0.76 0.76 0.76 0.77 0.74 0.76 0.80 0.84 0.87 0.89 0.99 1.08 1.02 1.02 0.92 0.94 0.94 0.91 0.88 0.84 0.79 0.78 0.80 0.82 0.88 0.80 0.75
0.18 0.18 0.19 0.20 0.21 0.25 0.33 0.42 0.55 0.72 0.86 0.94 0.96 0.97 1.00 1.05 1.08 1.09 1.07 1.07 1.08 1.07 1.04 0.99 0.94 0.89 0.90 0.94 0.90 0.86 0.80 0.82 0.80 0.75 0.72 0.72 0.68 0.78 0.87 0.81 0.76 0.70 0.67
0.21 0.20 0.20 0.21 0.23 0.27 0.34 0.48 0.66 0.83 0.95 1.01 1.06 1.10 1.17 1.24 1.22 1.19 1.15 1.07 1.03 1.05 1.03 1.00 0.93 0.85 0.77 0.75 0.71 0.70 0.64 0.64 0.62 0.59 0.57 0.64 0.65 0.77 0.85 0.77 0.74 0.70 0.59
0.29 0.30 0.31 0.34 0.36 0.39 0.47 0.63 0.75 0.87 0.93 0.95 0.97 1.00 1.00 1.03 1.01 0.98 0.94 0.89 0.84 0.80 0.77 0.73 0.67 0.61 0.59 0.60 0.59 0.60 0.55 0.55 0.56 0.56 0.55 0.56 0.67 0.73 0.77 0.78 0.70 0.69 0.69
0.30 0.38 0.45 0.48 0.49 0.52 0.59 0.67 0.71 0.72 0.71 0.70 0.70 0.69 0.65 0.61 0.62 0.64 0.65 0.63 0.61 0.59 0.56 0.52 0.49 0.45 0.44 0.47 0.49 0.56 0.59 0.60 0.56 0.54 0.53 0.58 0.72 0.77 0.77 0.73 0.72 0.79 0.82
0.16 0.21 0.28 0.33 0.34 0.35 0.40 0.44 0.42 0.37 0.34 0.32 0.33 0.35 0.34 0.34 0.35 0.38 0.41 0.44 0.45 0.45 0.46 0.45 0.44 0.41 0.38 0.40 0.47 0.51 0.59 0.65 0.59 0.54 0.58 0.64 0.70 0.72 0.70 0.71 0.74 0.74 0.69
0.12 0.12 0.13 0.15 0.15 0.16 0.19 0.22 0.20 0.16 0.16 0.17 0.18 0.21 0.24 0.27 0.29 0.33 0.36 0.39 0.40 0.40 0.41 0.42 0.42 0.40 0.36 0.35 0.39 0.46 0.52 0.61 0.63 0.61 0.63 0.65 0.66 0.64 0.63 0.64 0.65 0.63 0.62
0.13 0.13 0.13 0.13 0.14 0.14 0.14 0.16 0.16 0.15 0.15 0.15 0.16 0.18 0.21 0.24 0.26 0.28 0.34 0.40 0.41 0.44 0.48 0.46 0.44 0.45 0.43 0.39 0.48 0.57 0.60 0.63 0.67 0.72 0.70 0.65 0.60 0.59 0.58 0.56 0.56 0.58 0.61
0.16 0.15 0.15 0.17 0.19 0.20 0.21 0.21 0.21 0.20 0.19 0.20 0.20 0.23 0.24 0.25 0.26 0.27 0.29 0.34 0.39 0.43 0.45 0.47 0.47 0.43 0.45 0.48 0.54 0.59 0.63 0.70 0.79 0.84 0.74 0.61 0.55 0.53 0.53 0.54 0.56 0.57 0.60

GEFSMW_prec_meanprecacc_252.txt.gz
Total_Precipitation_Accumulation
1.07 1.20 1.26 1.56 1.84 1.98 2.15 2.30 2.41 2.50 2.74 2.92 2.91 2.77 2.58 2.35 2.24 2.23 2.16 2.07 2.00 2.06 2.03 1.85 1.74 1.73 1.65 1.52 1.44 1.38 1.38 1.34 1.29 1.37 1.29 1.15 1.04 0.97 0.87 0.77 0.71 0.69 0.68
0.95 1.07 1.15 1.30 1.54 1.76 1.97 2.21 2.32 2.41 2.42 2.48 2.71 2.86 2.90 2.71 2.42 2.25 2.17 2.09 2.03 2.04 2.04 2.01 1.93 1.83 1.77 1.72 1.68 1.65 1.59 1.54 1.54 1.57 1.61 1.48 1.32 1.08 0.93 0.89 0.83 0.76 0.75
0.84 0.92 1.06 1.27 1.39 1.53 1.76 2.05 2.21 2.34 2.36 2.39 2.65 2.87 3.04 2.87 2.53 2.17 2.00 2.01 2.03 2.07 2.00 2.01 2.06 2.00 1.90 1.78 1.73 1.70 1.69 1.66 1.63 1.62 1.74 1.59 1.32 1.05 0.92 0.84 0.80 0.78 0.77
0.71 0.75 0.87 1.06 1.20 1.35 1.52 1.69 1.90 2.07 2.27 2.36 2.42 2.46 2.59 2.58 2.32 2.20 2.09 2.08 2.08 2.09 2.06 2.03 2.05 2.04 1.97 1.82 1.77 1.72 1.67 1.69 1.67 1.63 1.55 1.44 1.22 1.13 1.03 0.90 0.81 0.79 0.80
0.70 0.69 0.83 1.02 1.09 1.19 1.42 1.56 1.65 1.84 2.07 2.22 2.27 2.39 2.39 2.42 2.47 2.43 2.32 2.21 2.14 2.09 2.04 2.02 2.03 1.96 1.91 1.86 1.89 1.84 1.81 1.76 1.68 1.60 1.54 1.53 1.36 1.17 1.14 1.02 0.88 0.86 0.84
0.76 0.80 0.91 1.00 1.04 1.10 1.26 1.48 1.48 1.58 1.75 2.01 2.22 2.27 2.22 2.26 2.31 2.30 2.24 2.20 2.16 2.12 2.04 1.95 1.91 1.88 1.89 1.89 1.91 1.95 1.91 1.89 1.85 1.74 1.61 1.60 1.57 1.38 1.31 1.24 1.05 0.98 0.92
0.71 0.79 0.88 0.89 0.95 1.04 1.15 1.32 1.40 1.48 1.58 1.75 1.95 2.12 2.21 2.22 2.23 2.24 2.19 2.09 1.98 1.88 1.86 1.89 1.84 1.78 1.73 1.77 1.84 1.93 1.93 1.88 1.88 1.82 1.73 1.66 1.57 1.46 1.44 1.42 1.27 1.16 1.05
0.59 0.62 0.73 0.81 0.90 0.99 1.04 1.09 1.14 1.20 1.28 1.37 1.51 1.70 1.96 2.07 2.00 2.00 1.97 1.93 1.85 1.81 1.79 1.78 1.80 1.80 1.77 1.73 1.77 1.82 1.86 1.86 1.80 1.70 1.65 1.61 1.53 1.51 1.53 1.50 1.53 1.52 1.31
0.62 0.60 0.65 0.69 0.78 0.90 1.01 1.00 0.99 1.03 1.12 1.16 1.24 1.36 1.58 1.75 1.79 1.81 1.76 1.67 1.63 1.68 1.68 1.67 1.67 1.70 1.72 1.71 1.73 1.78 1.75 1.76 1.74 1.69 1.60 1.50 1.39 1.38 1.39 1.40 1.48 1.65 1.60
0.63 0.59 0.61 0.63 0.68 0.77 0.89 0.93 0.94 0.95 1.08 1.12 1.14 1.22 1.32 1.42 1.58 1.67 1.56 1.50 1.48 1.50 1.51 1.51 1.50 1.52 1.54 1.56 1.61 1.62 1.59 1.59 1.57 1.56 1.57 1.52 1.40 1.36 1.38 1.43 1.48 1.56 1.64
0.64 0.65 0.65 0.65 0.69 0.77 0.80 0.82 0.89 0.93 1.04 1.08 1.04 1.05 1.12 1.17 1.26 1.35 1.39 1.33 1.34 1.33 1.32 1.32 1.33 1.32 1.34 1.38 1.43 1.42 1.44 1.49 1.48 1.47 1.50 1.51 1.47 1.46 1.45 1.50 1.55 1.61 1.68
0.58 0.62 0.62 0.62 0.68 0.74 0.74 0.71 0.78 0.84 0.95 0.99 0.94 0.94 0.99 1.05 1.09 1.13 1.21 1.22 1.21 1.21 1.23 1.24 1.22 1.19 1.16 1.20 1.24 1.26 1.28 1.31 1.35 1.40 1.45 1.48 1.49 1.52 1.53 1.57 1.58 1.59 1.58
0.43 0.48 0.50 0.50 0.53 0.55 0.58 0.64 0.67 0.66 0.72 0.76 0.74 0.75 0.77 0.84 0.92 0.96 0.99 1.04 1.08 1.11 1.14 1.17 1.14 1.14 1.12 1.13 1.14 1.13 1.14 1.17 1.19 1.23 1.29 1.31 1.37 1.43 1.45 1.49 1.53 1.50 1.48
0.34 0.40 0.45 0.41 0.43 0.46 0.49 0.55 0.55 0.55 0.61 0.63 0.62 0.64 0.67 0.69 0.75 0.81 0.81 0.82 0.87 0.93 1.00 1.08 1.06 1.04 1.06 1.10 1.12 1.15 1.13 1.12 1.11 1.11 1.17 1.21 1.25 1.28 1.32 1.41 1.43 1.42 1.43
0.29 0.34 0.42 0.42 0.42 0.43 0.45 0.47 0.52 0.58 0.64 0.67 0.66 0.64 0.64 0.65 0.68 0.73 0.75 0.73 0.73 0.73 0.77 0.86 0.94 0.97 0.98 1.02 1.05 1.07 1.10 1.11 1.10 1.12 1.16 1.22 1.37 1.38 1.32 1.30 1.27 1.27 1.34
0.25 0.28 0.34 0.42 0.40 0.45 0.49 0.51 0.57 0.67 0.70 0.73 0.70 0.68 0.65 0.63 0.61 0.61 0.63 0.64 0.65 0.65 0.68 0.74 0.78 0.85 0.92 1.13 1.12 1.03 1.01 1.08 1.12 1.14 1.13 1.17 1.30 1.29 1.27 1.23 1.19 1.20 1.27
0.23 0.26 0.31 0.40 0.41 0.48 0.57 0.63 0.67 0.75 0.76 0.78 0.73 0.68 0.64 0.62 0.60 0.57 0.57 0.61 0.64 0.66 0.70 0.73 0.77 0.82 0.96 1.16 1.16 1.18 1.05 1.05 1.09 1.11 1.09 1.05 1.02 1.06 0.94 1.01 1.09 1.10 1.11
0.19 0.22 0.27 0.30 0.35 0.40 0.49 0.58 0.64 0.76 0.80 0.80 0.79 0.77 0.76 0.77 0.80 0.79 0.80 0.81 0.78 0.81 0.87 0.90 0.93 0.97 1.07 1.16 1.10 1.09 0.98 1.00 1.00 0.96 0.94 0.90 0.84 0.82 0.84 0.85 0.91 0.83 0.79
0.19 0.19 0.22 0.23 0.26 0.31 0.37 0.46 0.58 0.74 0.88 0.96 0.97 0.99 1.02 1.07 1.10 1.12 1.12 1.12 1.12 1.12 1.09 1.05 1.00 0.97 0.99 1.02 0.96 0.92 0.86 0.89 0.87 0.81 0.78 0.78 0.74 0.83 0.92 0.85 0.80 0.73 0.71
0.21 0.20 0.21 0.23 0.26 0.33 0.38 0.51 0.69 0.85 0.97 1.03 1.08 1.13 1.20 1.26 1.24 1.22 1.18 1.11 1.08 1.10 1.08 1.05 1.00 0.92 0.86 0.83 0.78 0.75 0.69 0.71 0.69 0.66 0.64 0.70 0.71 0.82 0.90 0.81 0.78 0.74 0.63
0.29 0.30 0.32 0.36 0.38 0.41 0.49 0.65 0.78 0.90 0.95 0.97 0.99 1.02 1.03 1.06 1.03 1.01 0.97 0.92 0.89 0.84 0.82 0.78 0.73 0.67 0.67 0.68 0.66 0.66 0.60 0.61 0.63 0.64 0.62 0.62 0.73 0.78 0.82 0.84 0.75 0.74 0.73
0.30 0.38 0.45 0.50 0.50 0.53 0.61 0.69 0.72 0.75 0.74 0.71 0.72 0.71 0.67 0.64 0.64 0.67 0.68 0.66 0.65 0.63 0.61 0.57 0.54 0.50 0.50 0.54 0.56 0.62 0.66 0.66 0.62 0.61 0.60 0.65 0.79 0.83 0.84 0.80 0.77 0.85 0.88
0.16 0.21 0.29 0.35 0.35 0.36 0.41 0.45 0.43 0.39 0.37 0.34 0.36 0.37 0.36 0.36 0.37 0.41 0.44 0.46 0.48 0.49 0.50 0.49 0.49 0.46 0.42 0.45 0.53 0.57 0.65 0.72 0.66 0.60 0.65 0.71 0.78 0.80 0.78 0.80 0.81 0.79 0.75
0.12 0.13 0.13 0.16 0.17 0.18 0.20 0.23 0.21 0.18 0.17 0.19 0.21 0.23 0.26 0.28 0.31 0.34 0.38 0.42 0.44 0.44 0.45 0.46 0.46 0.44 0.40 0.40 0.44 0.50 0.57 0.67 0.69 0.68 0.69 0.71 0.72 0.72 0.71 0.73 0.74 0.70 0.69
0.13 0.14 0.14 0.14 0.16 0.16 0.16 0.17 0.17 0.16 0.16 0.16 0.18 0.20 0.22 0.25 0.27 0.30 0.36 0.43 0.45 0.49 0.53 0.52 0.49 0.51 0.49 0.44 0.54 0.62 0.64 0.68 0.73 0.78 0.76 0.70 0.66 0.65 0.65 0.63 0.64 0.66 0.68
0.16 0.15 0.16 0.17 0.20 0.21 0.22 0.23 0.22 0.21 0.20 0.21 0.21 0.24 0.26 0.26 0.27 0.29 0.30 0.37 0.42 0.47 0.50 0.52 0.53 0.49 0.51 0.54 0.60 0.64 0.68 0.75 0.84 0.90 0.81 0.68 0.61 0.59 0.58 0.60 0.62 0.64 0.67

GEFSMW_prec_meanprecacc_258.txt.gz
Total_Precipitation_Accumulation
1.08 1.20 1.28 1.58 1.85 1.99 2.16 2.32 2.43 2.53 2.78 2.97 2.96 2.84 2.67 2.42 2.29 2.26 2.18 2.10 2.03 2.08 2.05 1.87 1.76 1.75 1.67 1.54 1.49 1.42 1.41 1.37 1.33 1.41 1.33 1.18 1.08 1.01 0.92 0.81 0.74 0.71 0.70
0.96 1.08 1.16 1.32 1.54 1.77 1.98 2.22 2.34 2.44 2.46 2.52 2.76 2.91 2.95 2.76 2.47 2.29 2.20 2.11 2.05 2.08 2.09 2.05 1.96 1.86 1.80 1.74 1.70 1.69 1.63 1.57 1.57 1.62 1.65 1.51 1.35 1.11 0.95 0.92 0.85 0.77 0.76
0.85 0.94 1.06 1.28 1.39 1.53 1.77 2.07 2.23 2.36 2.39 2.43 2.69 2.91 3.07 2.90 2.56 2.20 2.02 2.02 2.04 2.08 2.02 2.04 2.10 2.05 1.95 1.81 1.76 1.73 1.72 1.69 1.66 1.67 1.79 1.63 1.34 1.08 0.95 0.86 0.82 0.80 0.79
0.72 0.77 0.88 1.07 1.20 1.36 1.53 1.71 1.92 2.09 2.29 2.39 2.46 2.51 2.62 2.61 2.35 2.23 2.11 2.09 2.09 2.09 2.07 2.05 2.08 2.08 2.01 1.87 1.83 1.77 1.71 1.73 1.70 1.67 1.59 1.49 1.26 1.16 1.06 0.92 0.83 0.81 0.81
0.71 0.71 0.84 1.03 1.09 1.19 1.42 1.57 1.66 1.85 2.09 2.25 2.30 2.43 2.42 2.44 2.50 2.46 2.35 2.22 2.15 2.09 2.04 2.02 2.05 1.98 1.93 1.89 1.92 1.88 1.85 1.80 1.73 1.64 1.57 1.57 1.40 1.22 1.17 1.05 0.90 0.89 0.86
0.76 0.81 0.93 1.02 1.04 1.10 1.27 1.48 1.49 1.58 1.76 2.02 2.24 2.30 2.24 2.28 2.32 2.32 2.26 2.22 2.18 2.13 2.05 1.96 1.92 1.90 1.91 1.92 1.94 1.98 1.94 1.92 1.88 1.78 1.65 1.65 1.61 1.42 1.35 1.28 1.08 1.01 0.95
0.72 0.80 0.90 0.91 0.95 1.04 1.15 1.32 1.41 1.48 1.59 1.76 1.96 2.14 2.23 2.24 2.24 2.26 2.21 2.11 2.01 1.91 1.88 1.90 1.84 1.79 1.74 1.79 1.86 1.95 1.95 1.91 1.90 1.85 1.76 1.70 1.62 1.50 1.49 1.47 1.32 1.21 1.10
0.59 0.64 0.75 0.83 0.91 0.99 1.05 1.09 1.15 1.21 1.29 1.38 1.52 1.71 1.97 2.09 2.02 2.01 1.98 1.94 1.86 1.83 1.82 1.81 1.82 1.81 1.78 1.75 1.79 1.84 1.88 1.88 1.83 1.72 1.67 1.64 1.57 1.56 1.58 1.56 1.60 1.58 1.37
0.62 0.61 0.68 0.71 0.79 0.90 1.01 1.00 0.99 1.04 1.13 1.17 1.25 1.37 1.60 1.76 1.80 1.83 1.77 1.68 1.64 1.69 1.70 1.69 1.70 1.73 1.74 1.73 1.75 1.80 1.77 1.78 1.76 1.70 1.62 1.53 1.42 1.42 1.44 1.47 1.55 1.72 1.67
0.63 0.59 0.63 0.66 0.69 0.78 0.89 0.93 0.94 0.96 1.09 1.13 1.15 1.23 1.33 1.43 1.59 1.67 1.57 1.51 1.49 1.51 1.52 1.52 1.52 1.54 1.57 1.59 1.64 1.65 1.61 1.61 1.59 1.58 1.59 1.54 1.42 1.40 1.43 1.49 1.55 1.64 1.70
0.64 0.65 0.67 0.68 0.71 0.78 0.80 0.83 0.90 0.94 1.05 1.09 1.05 1.06 1.12 1.17 1.27 1.35 1.40 1.34 1.34 1.33 1.33 1.33 1.34 1.33 1.36 1.40 1.45 1.45 1.46 1.51 1.50 1.49 1.52 1.53 1.49 1.49 1.49 1.55 1.61 1.68 1.75
0.58 0.63 0.63 0.64 0.70 0.75 0.75 0.72 0.79 0.85 0.96 1.00 0.95 0.94 0.99 1.05 1.09 1.13 1.22 1.23 1.22 1.22 1.24 1.25 1.23 1.20 1.17 1.21 1.26 1.29 1.31 1.34 1.38 1.42 1.47 1.50 1.51 1.55 1.56 1.61 1.64 1.64 1.64
0.43 0.48 0.52 0.52 0.55 0.57 0.60 0.66 0.68 0.66 0.72 0.77 0.75 0.75 0.77 0.84 0.92 0.97 0.99 1.04 1.09 1.12 1.15 1.18 1.15 1.15 1.13 1.14 1.15 1.15 1.17 1.20 1.23 1.26 1.32 1.34 1.40 1.46 1.48 1.54 1.58 1.55 1.53
0.34 0.40 0.48 0.44 0.45 0.47 0.50 0.56 0.56 0.56 0.62 0.64 0.63 0.64 0.67 0.69 0.75 0.81 0.81 0.83 0.87 0.94 1.01 1.09 1.08 1.06 1.08 1.11 1.14 1.16 1.15 1.14 1.14 1.15 1.21 1.25 1.29 1.31 1.35 1.45 1.49 1.47 1.47
0.29 0.34 0.44 0.47 0.44 0.45 0.46 0.48 0.53 0.59 0.65 0.68 0.67 0.65 0.65 0.65 0.68 0.74 0.75 0.73 0.74 0.74 0.78 0.88 0.96 0.99 1.00 1.04 1.07 1.09 1.12 1.12 1.13 1.14 1.19 1.26 1.41 1.43 1.36 1.34 1.32 1.32 1.38
0.26 0.28 0.36 0.51 0.46 0.46 0.50 0.52 0.58 0.68 0.71 0.74 0.71 0.69 0.65 0.63 0.61 0.62 0.64 0.65 0.66 0.66 0.69 0.77 0.81 0.88 0.94 1.16 1.16 1.06 1.04 1.11 1.15 1.17 1.15 1.19 1.32 1.32 1.31 1.27 1.25 1.27 1.33
0.23 0.26 0.32 0.47 0.53 0.54 0.59 0.64 0.68 0.75 0.77 0.78 0.73 0.68 0.65 0.62 0.61 0.58 0.58 0.62 0.65 0.68 0.72 0.76 0.81 0.86 1.00 1.21 1.20 1.23 1.10 1.11 1.14 1.14 1.12 1.07 1.04 1.10 0.98 1.04 1.14 1.17 1.18
0.20 0.23 0.28 0.34 0.45 0.48 0.53 0.60 0.66 0.77 0.81 0.81 0.80 0.78 0.77 0.78 0.81 0.80 0.82 0.82 0.80 0.83 0.90 0.94 0.97 1.02 1.12 1.21 1.15 1.14 1.03 1.05 1.05 1.00 0.97 0.93 0.87 0.86 0.88 0.90 0.96 0.90 0.87
0.20 0.21 0.24 0.26 0.31 0.39 0.43 0.49 0.61 0.76 0.89 0.96 0.98 1.00 1.03 1.08 1.11 1.13 1.13 1.13 1.14 1.14 1.11 1.08 1.04 1.03 1.05 1.08 1.02 0.98 0.90 0.93 0.91 0.85 0.83 0.82 0.78 0.88 0.97 0.90 0.85 0.79 0.79
0.23 0.22 0.23 0.25 0.28 0.38 0.45 0.55 0.72 0.88 0.99 1.04 1.09 1.14 1.21 1.27 1.25 1.23 1.20 1.13 1.10 1.12 1.10 1.08 1.03 0.96 0.92 0.91 0.85 0.82 0.76 0.76 0.74 0.70 0.69 0.76 0.76 0.89 0.97 0.87 0.84 0.79 0.68
0.31 0.32 0.33 0.37 0.39 0.44 0.55 0.70 0.82 0.94 1.00 1.00 1.00 1.03 1.04 1.07 1.04 1.02 0.98 0.94 0.91 0.87 0.84 0.80 0.76 0.71 0.73 0.76 0.75 0.74 0.69 0.70 0.70 0.70 0.69 0.70 0.80 0.86 0.91 0.91 0.81 0.79 0.78
0.31 0.40 0.46 0.51 0.51 0.55 0.64 0.73 0.77 0.79 0.78 0.77 0.74 0.72 0.68 0.65 0.65 0.68 0.69 0.68 0.67 0.65 0.63 0.59 0.56 0.53 0.55 0.62 0.65 0.71 0.74 0.75 0.71 0.69 0.69 0.74 0.87 0.91 0.93 0.88 0.86 0.92 0.95
0.17 0.22 0.30 0.36 0.37 0.38 0.43 0.48 0.46 0.43 0.41 0.40 0.42 0.40 0.37 0.37 0.38 0.42 0.45 0.48 0.50 0.51 0.52 0.52 0.52 0.50 0.46 0.51 0.60 0.65 0.73 0.80 0.75 0.69 0.75 0.80 0.86 0.88 0.88 0.89 0.89 0.88 0.83
0.12 0.13 0.14 0.17 0.18 0.19 0.21 0.24 0.23 0.20 0.21 0.24 0.27 0.30 0.30 0.31 0.32 0.35 0.39 0.43 0.46 0.46 0.48 0.49 0.50 0.49 0.45 0.45 0.50 0.57 0.65 0.75 0.77 0.76 0.78 0.81 0.81 0.80 0.80 0.84 0.85 0.81 0.80
0.14 0.14 0.15 0.16 0.17 0.17 0.18 0.18 0.19 0.17 0.18 0.19 0.22 0.26 0.29 0.32 0.32 0.32 0.37 0.44 0.47 0.53 0.59 0.58 0.55 0.57 0.55 0.52 0.62 0.70 0.72 0.76 0.81 0.85 0.83 0.79 0.75 0.75 0.76 0.75 0.75 0.77 0.79
0.17 0.16 0.17 0.19 0.21 0.23 0.25 0.24 0.24 0.22 0.22 0.23 0.24 0.28 0.31 0.32 0.33 0.34 0.34 0.40 0.45 0.51 0.55 0.58 0.59 0.55 0.58 0.61 0.67 0.72 0.76 0.82 0.92 0.97 0.89 0.75 0.68 0.66 0.67 0.70 0.72 0.74 0.76